This is the latest recevied weather packets stored in our database for station/object DM3DP. If no packets are shown the sender has not sent any weather packets the latest 10 day(s).
| Time | Temp. | Humidity | Pressure | Rain* | Wind** | Luminosity | Snow |
|---|---|---|---|---|---|---|---|
| 1777637792 | 22.78° C | 30% | 1023.1 hPa | 0 mm | - | 711 W/m² | - |
| 1777637461 | 22.78° C | 30% | 1023.1 hPa | 0 mm | - | 716 W/m² | - |
| 1777637131 | 22.22° C | 31% | 1023.1 hPa | 0 mm | - | 724 W/m² | - |
| 1777636801 | 22.22° C | 31% | 1023.1 hPa | 0 mm | - | 725 W/m² | - |
| 1777636471 | 22.22° C | 31% | 1023.1 hPa | 0 mm | - | 728 W/m² | - |
| 1777636142 | 21.67° C | 31% | 1023.2 hPa | 0 mm | - | 734 W/m² | - |
| 1777635811 | 21.67° C | 31% | 1023.4 hPa | 0 mm | - | 710 W/m² | - |
| 1777635481 | 21.67° C | 31% | 1023.4 hPa | 0 mm | - | 487 W/m² | - |
| 1777635152 | 21.67° C | 32% | 1023.4 hPa | 0 mm | - | 474 W/m² | - |
| 1777634821 | 21.11° C | 34% | 1023.4 hPa | 0 mm | - | 492 W/m² | - |
| 1777634491 | 21.11° C | 34% | 1023.4 hPa | 0 mm | - | 744 W/m² | - |
| 1777634161 | 21.11° C | 34% | 1023.5 hPa | 0 mm | - | 747 W/m² | - |
| 1777633832 | 21.11° C | 34% | 1023.7 hPa | 0 mm | - | 747 W/m² | - |
| 1777633501 | 20.56° C | 32% | 1023.8 hPa | 0 mm | - | 748 W/m² | - |
| 1777633171 | 20.56° C | 33% | 1023.8 hPa | 0 mm | - | 747 W/m² | - |
| 1777632841 | 20.56° C | 34% | 1024 hPa | 0 mm | - | 745 W/m² | - |
| 1777632512 | 20.56° C | 34% | 1024 hPa | 0 mm | - | 745 W/m² | - |
| 1777632181 | 20.56° C | 34% | 1024 hPa | 0 mm | - | 746 W/m² | - |
| 1777631851 | 20.56° C | 34% | 1024 hPa | 0 mm | - | 756 W/m² | - |
| 1777631522 | 20.56° C | 34% | 1024 hPa | 0 mm | - | 767 W/m² | - |
| 1777631192 | 20° C | 34% | 1024.1 hPa | 0 mm | - | 775 W/m² | - |
| 1777630861 | 20° C | 33% | 1024.2 hPa | 0 mm | - | 815 W/m² | - |
| 1777630532 | 20° C | 34% | 1024.4 hPa | 0 mm | - | 836 W/m² | - |
| 1777630201 | 20° C | 33% | 1024.5 hPa | 0 mm | - | 815 W/m² | - |
| 1777629872 | 19.44° C | 32% | 1024.5 hPa | 0 mm | - | 807 W/m² | - |
* Rain latest hour (hover to see other rain measurements)
** Current wind speed in m/s (hover to see current wind gust speed)